Home   Weather   Sarpsborg   Past weeks

Flag for Norway Past Weather in Sarpsborg, Norway — Yesterday and Last 2 Weeks

Now
39 °F

Chilly.


Feels Like: 35 °F
Forecast: 36 / 55 °F
Wind: 6 mph from South

Location: Rygge

Current Time: May 1, 2017 at 1:05:46 am

Latest Report: May 1, 2017 at 12:20 am


Visibility: 4 mi

Pressure: 30.21 "Hg

Humidity: 100%

Dew Point: 39 °F

Location of SarpsborgLocation

Past Weather in Sarpsborg — Graph

°F

Sarpsborg Temperature Yesterday

Maximum temperature yesterday: 52 °F (at 3:20 pm)
Minimum temperature yesterday: 30 °F (at 2:50 am)
Average temperature yesterday: 41 °F

High & Low Weather Summary for the Past Weeks

 TemperatureHumidityPressure
High57 °F (Apr 21, 1:50 pm)100% (Apr 16, 2:50 am)30.54 "Hg (Apr 16, 2:50 am)
Low25 °F (Apr 16, 2:50 am)22% (Apr 22, 2:20 pm)29.24 "Hg (Apr 24, 8:50 pm)
Average40 °F64%29.94 "Hg
* Reported Apr 15 11:20 pm — Apr 30 11:50 pm, Sarpsborg, Weather by CustomWeather, © 2017

Note: Actual official high and low records may vary slightly from our data, if they occured in-between our weather recording intervals... More about our weather records

Advertising

Sarpsborg Weather History for the Previous 24 Hours

Scroll right to see more
 ConditionsComfort  
Time TempWeatherWind HumidityBarometerVisibility
11:50 pm
Sun, Apr 30
39 °FChilly.5 mph100%30.21 "Hg4 mi
11:20 pm39 °FChilly.5 mph100%30.21 "Hg5 mi
10:50 pm41 °FQuite cool.5 mph93%30.18 "HgN/A
10:20 pm41 °FQuite cool.6 mph93%30.18 "HgN/A
9:20 pm43 °FQuite cool.8 mph87%30.18 "HgN/A
8:50 pm43 °FQuite cool.9 mph87%30.18 "HgN/A
8:20 pm45 °FQuite cool.12 mph81%30.15 "HgN/A
7:50 pm45 °FQuite cool.12 mph81%30.15 "HgN/A
7:20 pm46 °FCool.13 mph76%30.15 "HgN/A
6:50 pm46 °FCool.16 mph71%30.15 "HgN/A
6:20 pm48 °FCool.16 mph62%30.15 "HgN/A
5:50 pm48 °FCool.14 mph62%30.15 "HgN/A
5:20 pm48 °FCool.16 mph62%30.15 "HgN/A
4:50 pm50 °FCool.16 mph54%30.15 "HgN/A
4:20 pm50 °FCool.17 mph47%30.15 "HgN/A
3:50 pm50 °FCool.14 mph54%30.15 "HgN/A
3:20 pm52 °FCool.15 mph47%30.15 "HgN/A
2:50 pm50 °FCool.15 mph50%30.15 "HgN/A
2:20 pm50 °FCool.13 mph54%30.15 "HgN/A
1:50 pm50 °FSunny.10 mph58%30.18 "Hg10 mi
1:20 pm50 °FPassing clouds.8 mph54%30.18 "HgN/A
12:50 pm50 °FSunny.9 mph54%30.18 "Hg10 mi
12:20 pm50 °FPassing clouds.6 mph50%30.18 "HgN/A
11:50 am48 °FSunny.3 mph54%30.18 "Hg10 mi
11:20 am46 °FPassing clouds.5 mph53%30.18 "HgN/A
10:50 am46 °FPassing clouds.6 mph53%30.18 "HgN/A
10:20 am45 °FPassing clouds.7 mph57%30.18 "HgN/A
9:50 am45 °FSunny.3 mph53%30.21 "Hg10 mi
9:20 am45 °FQuite cool.1 mph49%30.21 "HgN/A
8:50 am43 °FQuite cool.1 mph53%30.21 "HgN/A
8:20 am41 °FQuite cool.3 mph57%30.21 "HgN/A
7:50 am37 °FChilly.3 mph70%30.21 "HgN/A
7:20 am36 °FChilly.2 mph75%30.21 "HgN/A
6:50 am34 °FChilly.3 mph75%30.21 "HgN/A
6:20 am32 °FChilly.3 mph80%30.21 "HgN/A
5:50 am30 °FChilly.2 mph86%30.21 "HgN/A
5:20 am30 °FChilly.3 mph86%30.21 "HgN/A
4:50 am30 °FChilly.5 mph93%30.21 "HgN/A
4:20 am32 °FChilly.6 mph87%30.21 "HgN/A
3:50 am30 °FChilly.5 mph86%30.18 "HgN/A
3:20 am30 °FChilly.3 mph86%30.18 "HgN/A
2:50 am30 °FChilly.2 mph86%30.18 "HgN/A
2:20 am32 °FChilly.2 mph87%30.18 "HgN/A
1:50 am32 °FChilly.5 mph87%30.18 "HgN/A
1:20 am34 °FChilly.No wind87%30.18 "HgN/A
Weather by CustomWeather, © 2017

See weather overviewHow to use our weather pages